www.pogodaiklimat.ru
Время
и дата
02:53 30.12
03:53 30.12
04:53 30.12
05:11 30.12
05:53 30.12
06:53 30.12
07:53 30.12
08:53 30.12
09:53 30.12
10:53 30.12
11:53 30.12
12:53 30.12
13:53 30.12
14:53 30.12
15:53 30.12
16:53 30.12
17:53 30.12
18:53 30.12
19:53 30.12
20:53 30.12
21:53 30.12
22:53 30.12
23:53 30.12
00:53 31.12
01:53 31.12
02:53 31.12
03:53 31.12
04:53 31.12
05:53 31.12
06:53 31.12
07:53 31.12
08:53 31.12
09:53 31.12
10:09 31.12
10:12 31.12
10:23 31.12
10:53 31.12
11:34 31.12
11:45 31.12
11:53 31.12
12:04 31.12
12:53 31.12
13:07 31.12
13:14 31.12
13:53 31.12
14:53 31.12
15:53 31.12
16:53 31.12
Ветер
(напр.,м/с)
Видим. Явления Облачность Т
(С)
Тd
(С)
f
(%)
Тe
(С)
Тes
(С)
Комфортность P
(гПа)
Po
(гПа)
Тmin
(С)
Tmax
(С)
R
(мм)
R24
(мм)
S
(см)
ЮВ 2 16 км ясно -17.2 -20.0 79 -25 -25 1011.2 945.0
ЮВ 1 16 км ясно -17.2 -19.4 83 -24 -24 1009.9 943.8
ЮВ 1 16 км 2/0 2700 м
[Ac]
-16.7 -19.4 80 -24 -24 1008.8 942.8
ЮВ 1 10 км мгла 8/2 90 м
[Ac]
-16.1 -18.9 79 -23 -23 942.8
ЮВ 2 16 км 10/0 2700 м
[Ac]
-15.0 -17.2 83 -24 -24 1007.6 941.9 -18.3 -15.0
ЮВ 3 16 км 10/0 2250 м
[Ac]
-11.1 -13.9 80 -20 -20 1006.4 940.9
ЮВ 4 16 км 10/0 2250 м
[Ac]
-10.6 -12.8 84 -20 -20 1005.3 939.6
Ю 2 16 км 2/0 3600 м
[Ac]
-10.6 -12.8 84 -18 -18 1005.2 939.6
Ю 2 16 км ясно -9.4 -12.2 80 -17 -17 1005.2 939.6
ЮЗ 2 16 км ясно -8.3 -11.7 76 -15 -14 1005.9 940.6
ЮЗ 2 16 км ясно -7.2 -11.1 74 -14 -12 1004.4 939.3 -15.0 -7.2
ЮЗ 2 16 км ясно -6.7 -10.6 74 -14 -12 1003.7 938.4
З 2 16 км ясно -7.2 -11.1 74 -15 -13 1004.3 939.0
З 1 16 км ясно -8.3 -11.7 76 -14 -12 1005.0 939.6
СЗ 2 16 км ясно -10.0 -13.3 77 -18 -17 1005.9 940.3
СЗ 1 16 км ясно -12.2 -15.6 76 -18 -18 1006.8 941.2
штиль 0 16 км ясно -13.3 -15.6 83 -13 -13 1007.3 941.6 -13.9 -6.7
штиль 0 16 км ясно -15.6 -17.2 87 -16 -16 1007.3 941.9
штиль 0 16 км ясно -16.1 -17.8 87 -16 -16 1007.7 941.9
штиль 0 16 км ясно -17.2 -18.9 87 -17 -17 1007.4 941.6
Ю 1 16 км 2/0 3600 м
[Ac]
-16.1 -17.8 87 -21 -21 1008.0 942.5
С 1 16 км 2/0 3300 м
[Ac]
-15.6 -17.8 83 -21 -21 1007.7 942.2
СВ 1 16 км 10/0 3300 м
[Ac]
-15.0 -16.7 87 -20 -20 1008.1 942.8 -17.8 -13.3
С 3 16 км 8/0 3000 м
[Ac]
-14.4 -16.7 83 -24 -24 1008.1 942.8
С 2 16 км 8/0 3000 м
[Ac]
-14.4 -16.7 83 -23 -23 1008.6 943.1
С 3 16 км 10/0 2100 м
[Ac]
-13.3 -16.1 79 -22 -22 1009.4 944.1
С 2 16 км 10/10 1800 м -13.9 -16.7 79 -22 -22 1009.3 943.8
С 2 16 км 10/0 2100 м
[Ac]
-13.3 -16.7 76 -22 -22 1009.7 944.1
С 3 16 км 10/0 2100 м
[Ac]
-13.3 -17.2 72 -23 -23 1010.4 944.4 -15.0 -13.3
С 3 16 км 10/0 2100 м
[Ac]
-15.0 -17.8 79 -25 -25 1011.7 945.7
СВ 2 6 км слабый снег 10/10 1800 м -15.6 -18.3 80 -25 -25 1012.1 945.7
С 3 11 км 10/10 1410 м -15.6 -18.3 80 -25 -25 1012.9 946.6
С 3 16 км 10/10 1140 м -15.6 -18.3 80 -25 -25 1014.7 948.2
С 4 3 км слабый снег 10/10 840 м -16.1 -18.9 79 -27 -27 948.5
С 3 2 км слабый снег 10/10 780 м -16.1 -18.9 79 -27 -27 948.5
С 3 1 км слабый снег, дымка ?/? -16.7 -18.9 83 -27 -27 948.5
С 3 1 км слабый снег, дымка ?/? -17.2 -19.4 83 -28 -28 1015.3 948.9
С 4 2 км слабый снег ?/? -16.7 -19.4 80 -28 -28 948.5
С 4 3 км слабый снег 10/10 540 м -17.2 -20.0 79 -29 -29 948.5
С 4 8 км слабый снег 10/10 720 м -17.2 -20.0 79 -29 -29 1015.1 948.5 -17.2 -13.3
С 4 13 км 10/10 930 м -17.2 -20.0 79 -29 -29 948.5
С 4 3 км слабый снег 10/10 870 м -17.8 -20.6 79 -30 -30 1015.6 948.9
С 3 3 км слабый снег 10/10 870 м -17.8 -20.6 79 -28 -28 949.2
С 4 8 км слабый снег 10/10 990 м -17.8 -21.1 75 -30 -30 949.2
С 4 16 км 10/10 1500 м -18.3 -21.7 75 -30 -30 1015.8 949.2
С 3 14 км 10/2 210 м
[Ac]
-18.9 -21.7 78 -30 -29 1016.5 949.8
С 3 16 км 2/0 3300 м
[Ac]
-20.6 -23.9 75 -32 -32 опасность
обморожения
1017.8 950.8
С 3 16 км ясно -21.7 -26.1 67 -34 -34 опасность
обморожения
1018.5 951.4
Местоположение метеостанции Watertown Municipal Airport: широта 44.9047 долгота -97.1494 высота над уровнем моря 532 м.
В архиве по умолчанию представлена погода в Уотертауне за последние 1-2 суток. Обновление информации о фактической погоде в базе происходит ежечасно! Архивные данные за месяц целиком и за предыдущие месяцы Вы можете получить, выбрав интересующий диапазон дат из раскрывающегося списка и нажав кнопку "Ввод!".
Внимание! Архив погоды МЕТАР в базе сайта по станциям, не включенным в климатический монитор, хранится не более 60 дней. Нет смысла пытаться выбрать более раннюю дату.
*Определитесь, кто Вы:
Внимание! Время в таблицах - местное (без учета летнего времени). Для получения всемирного времени необходимо вычесть поправку, которая равна -6 ч.
Смотрите также архив погоды в соседних городах и на ближайших метеорологических станциях:
Партнеры нашего сайта:      
Пояснения к столбцам:
  • Ветер - указаны скорость ветра в м/с - средняя за 10 мин, порывы в срок и между сроками (в фигурных скобках) и направление, откуда дует ветер: С - северный,
  • СВ - северо-восточный, В - восточный, ЮВ - юго-восточный, Ю - южный, ЮЗ - юго-западный, З - западный, СЗ - северо-западный.
  • Видимость - горизонтальная дальность видимости в метрах или километрах. При видимости от 1 до 10 км при отсутствии осадков обычно наблюдается дымка, при ухудшении видимости до 1 км и менее - туман. В сухую погоду видимость может ухудшаться дымом, пылью или мглою.
  • Явления - указаны атмосферные явления, наблюдавшиеся в срок или в последний час перед сроком; фигурными скобками обозначены явления, наблюдавшиеся между сроками (за 1-3 часа до срока); квадратными скобками обозначены град или гололедные отложения с указанием их диаметра в мм.
  • Облачность - указаны через наклонную черту общая и нижняя облачность в баллах и высота нижней границы облаков в метрах; квадратными скобками обозначены формы облаков: Ci - перистые, Cs - перисто-слоистые, Cc - перисто-кучевые, Ac - высококучевые, As - высокослоистые, Sc - слоисто-кучевые, Ns - слоисто-дождевые, Cu - кучевые, Cb - кучево-дождевые. Подробнее классификацию облаков см. в Атласе облаков (PDF).
  • T - Температура воздуха - температура, измеренная на высоте 2 м над землей.
  • Td - Температура точки росы - температура, при понижении до которой содержащийся в воздухе водяной пар достигнет насыщения.
  • f - Относительная влажность воздуха - влажноcть воздуха, измеренная на высоте 2 м над землей.
  • Te - Эффективная температура - температура, которую ощущает одетый по сезону человек в тени. Характеристика душности погоды. При расчете учитывается влияние влажности воздуха и скорости ветра на теплоощущения человека.
  • Tes - Эффективная температура на солнце - температура, которую ощущает человек, с поправкой на солнечный нагрев. Характеристика знойности погоды. Зависит от высоты солнца над горизонтом, облачности и скорости ветра. Ночью, в пасмурную погоду, а также при ветре 12 м/с и более поправка равна нулю.
  • P - Атмосферное давление - приведенное к уровню моря атмосферное давление.
  • Po - Атмосферное давление - измеренное на уровне метеостанции атмосферное давление.
  • Tmin - Минимальная температура - минимум температуры воздуха на высоте 2 м над землей.
  • Tmax - Максимальная температура - максимум температуры воздуха на высоте 2 м над землей.
  • R - Количество осадков - Количество выпавших осадков за период времени, мм. При наведении курсора мыши на число - период времени, за который выпало указанное количество осадков.
  • R24 - Количество осадков - Количество выпавших осадков за 24 часа, мм.
  • S - Снежный покров - Высота снежного покрова, см. При наведении курсора мыши на число - состояние снежного покрова и степень покрытия местности в баллах.